Change the Weather History Date:

Wednesday, January 9, 2013

  Actual Average Record
Temperature  
Mean Temperature 35 °F -  
Max Temperature 39 °F 22 °F 52 °F (1965)
Min Temperature 31 °F 8 °F -15 °F (1971)
Degree Days  
Heating Degree Days 30    
Moisture  
Dew Point 27 °F    
Average Humidity 72    
Maximum Humidity 85    
Minimum Humidity 57    
Precipitation  
Precipitation 0.00 in - - ()
Sea Level Pressure  
Sea Level Pressure 30.04 in    
Wind  
Wind Speed 14 mph (WSW)    
Max Wind Speed 24 mph    
Max Gust Speed 36 mph    
Visibility 10 miles    
Events Snow    
Averages and records for this station are not official NWS values.
T = Trace of Precipitation, MM = Missing Value Source: NWS Daily Summary

Daily Weather History Graph

Daily Weather History Graph

Search for Another Location

Airport or City:

Trip Planner

Search our weather history database for the weather conditions in past years. The results will help you decide how hot, cold, wet, or windy it might be!

Date:

Astronomy

Jan. 09, 2013 Rise Set
Actual Time 8:16 AM EST 5:21 PM EST
Civil Twilight 7:43 AM EST 5:54 PM EST
Nautical Twilight 7:07 AM EST 6:30 PM EST
Astronomical Twilight 6:32 AM EST 7:05 PM EST
Moon 5:55 AM EST (1/9) 3:22 PM EST (1/9)
Length of Visible Light 10h 10m
Length of Day
9h 05m
Waning Crescent, 6% of the Moon is Illuminated
Jan 9
Waning Crescent
Jan 11
New
Jan 18
First Quarter
Jan 26
Full
Feb 3
Last Quarter

Hourly Weather History & Observations

Time (EST) Temp. Windchill Dew Point Humidity Pressure Visibility Wind Dir Wind Speed Gust Speed Precip Events Conditions
12:15 AM 31.5 °F 22.9 °F 23.4 °F 72% 29.97 in 10.0 mi South 10.4 mph - N/A   Scattered Clouds
12:35 AM 31.5 °F 24.2 °F 23.0 °F 71% 29.96 in 10.0 mi South 8.1 mph - N/A   Clear
12:55 AM 31.5 °F 24.9 °F 23.0 °F 71% 29.94 in 10.0 mi South 6.9 mph - N/A   Clear
1:15 AM 31.5 °F 24.2 °F 23.0 °F 71% 29.92 in 10.0 mi SSW 8.1 mph - N/A   Clear
1:35 AM 32.0 °F 22.5 °F 23.5 °F 71% 29.91 in 10.0 mi SSW 12.7 mph 17.3 mph N/A   Clear
1:55 AM 33.8 °F 24.8 °F 24.6 °F 69% 29.89 in 10.0 mi SSW 12.7 mph 19.6 mph N/A   Clear
2:15 AM 33.8 °F 26.4 °F 25.3 °F 71% 29.89 in 10.0 mi SSW 9.2 mph 19.6 mph N/A   Clear
2:35 AM 36.1 °F 26.9 °F 27.9 °F 72% 29.88 in 10.0 mi SSW 15.0 mph 21.9 mph N/A   Scattered Clouds
2:55 AM 36.1 °F 28.2 °F 28.2 °F 73% 29.87 in 10.0 mi SSW 11.5 mph 17.3 mph N/A   Mostly Cloudy
3:15 AM 36.1 °F 26.9 °F 28.4 °F 73% 29.88 in 10.0 mi SSW 15.0 mph 21.9 mph N/A   Mostly Cloudy
3:35 AM 36.1 °F 27.7 °F 29.7 °F 77% 29.87 in 3.0 mi South 12.7 mph 25.3 mph N/A Snow Light Snow
3:55 AM 33.8 °F 23.9 °F 29.7 °F 85% 29.86 in 10.0 mi SSW 15.0 mph 18.4 mph N/A Snow Light Snow
4:15 AM 36.1 °F 27.3 °F 32.0 °F 85% 29.85 in 10.0 mi SSW 13.8 mph 18.4 mph N/A   Mostly Cloudy
4:35 AM 33.8 °F 25.3 °F 29.8 °F 85% 29.85 in 10.0 mi SSW 11.5 mph - N/A   Scattered Clouds
4:55 AM 34.2 °F 24.4 °F 30.2 °F 85% 29.86 in 10.0 mi SSW 15.0 mph 21.9 mph N/A   Scattered Clouds
5:15 AM 36.1 °F 27.7 °F 32.0 °F 85% 29.84 in 10.0 mi SSW 12.7 mph - N/A   Overcast
5:35 AM 36.1 °F 27.7 °F 32.0 °F 85% 29.83 in 10.0 mi SSW 12.7 mph 18.4 mph N/A   Overcast
5:55 AM 36.1 °F 27.7 °F 32.0 °F 85% 29.82 in 10.0 mi SSW 12.7 mph 18.4 mph N/A   Mostly Cloudy
6:15 AM 36.1 °F 26.5 °F 32.0 °F 85% 29.82 in 10.0 mi SSW 16.1 mph - N/A   Scattered Clouds
6:35 AM 36.1 °F 27.3 °F 31.6 °F 84% 29.83 in 10.0 mi SW 13.8 mph 21.9 mph N/A   Mostly Cloudy
6:55 AM 36.1 °F 26.2 °F 31.1 °F 82% 29.84 in 10.0 mi SW 17.3 mph 21.9 mph N/A   Overcast
7:15 AM 36.1 °F 25.5 °F 30.9 °F 81% 29.84 in 10.0 mi SW 19.6 mph - N/A   Overcast
7:35 AM 36.5 °F 25.7 °F 30.9 °F 80% 29.84 in 10.0 mi SW 20.7 mph 32.2 mph N/A   Overcast
8:15 AM 36.1 °F 25.2 °F 29.8 °F 78% 29.88 in 10.0 mi WSW 20.7 mph 27.6 mph N/A   Overcast
8:35 AM 36.1 °F 25.9 °F 29.3 °F 76% 29.90 in 10.0 mi WSW 18.4 mph 28.8 mph N/A   Overcast
8:55 AM 36.1 °F 24.4 °F 29.1 °F 76% 29.91 in 10.0 mi WSW 24.2 mph 32.2 mph N/A   Mostly Cloudy
9:14 AM 36.1 °F 25.9 °F 29.3 °F 76% 29.93 in 10.0 mi WSW 18.4 mph 28.8 mph N/A   Mostly Cloudy
9:35 AM 36.1 °F 26.5 °F 29.3 °F 76% 29.94 in 10.0 mi WSW 16.1 mph 28.8 mph N/A   Mostly Cloudy
9:55 AM 36.1 °F 27.7 °F 29.3 °F 76% 29.93 in 10.0 mi WSW 12.7 mph 24.2 mph N/A   Overcast
10:14 AM 36.1 °F 26.2 °F 29.3 °F 76% 29.94 in 10.0 mi WSW 17.3 mph 20.7 mph N/A   Overcast
10:35 AM 36.1 °F 25.9 °F 29.8 °F 78% 29.94 in 10.0 mi SW 18.4 mph 25.3 mph N/A   Overcast
10:55 AM 36.1 °F 26.9 °F 29.5 °F 77% 29.93 in 10.0 mi SW 15.0 mph 20.7 mph N/A   Overcast
11:14 AM 36.1 °F 26.2 °F 29.3 °F 76% 29.93 in 10.0 mi SW 17.3 mph 25.3 mph N/A   Mostly Cloudy
11:35 AM 37.8 °F 26.8 °F 29.5 °F 72% 29.93 in 10.0 mi SW 23.0 mph 28.8 mph N/A   Overcast
11:55 AM 38.7 °F 28.3 °F 28.0 °F 66% 29.93 in 10.0 mi WSW 21.9 mph 27.6 mph N/A   Overcast
12:15 PM 39.2 °F 30.2 °F 26.4 °F 60% 29.93 in 10.0 mi WSW 17.3 mph 29.9 mph N/A   Mostly Cloudy
12:35 PM 38.8 °F 28.3 °F 24.8 °F 57% 29.93 in 10.0 mi West 23.0 mph 31.1 mph N/A   Scattered Clouds
12:55 PM 38.7 °F 28.6 °F 25.3 °F 59% 29.94 in 10.0 mi WSW 20.7 mph 31.1 mph N/A   Mostly Cloudy
1:15 PM 38.5 °F 27.5 °F 26.1 °F 61% 29.96 in 10.0 mi West 24.2 mph 35.7 mph N/A   Overcast
1:35 PM 36.1 °F 24.7 °F 24.8 °F 63% 29.98 in 10.0 mi West 23.0 mph 33.4 mph N/A   Overcast
1:55 PM 36.1 °F 24.7 °F 25.2 °F 64% 29.98 in 10.0 mi West 23.0 mph 35.7 mph N/A   Overcast
2:15 PM 36.1 °F 26.9 °F 25.7 °F 66% 30.01 in 10.0 mi West 15.0 mph 29.9 mph N/A   Overcast
2:35 PM 36.1 °F 26.5 °F 26.2 °F 67% 30.02 in 10.0 mi West 16.1 mph 28.8 mph N/A   Overcast
2:55 PM 36.1 °F 27.3 °F 25.7 °F 66% 30.03 in 10.0 mi WSW 13.8 mph 29.9 mph N/A   Overcast
3:15 PM 36.1 °F 27.3 °F 26.1 °F 67% 30.05 in 10.0 mi WSW 13.8 mph 25.3 mph N/A   Overcast
3:34 PM 36.1 °F 26.9 °F 26.4 °F 68% 30.08 in 10.0 mi WSW 15.0 mph 23.0 mph N/A   Overcast
3:55 PM 36.1 °F 26.2 °F 26.1 °F 67% 30.09 in 10.0 mi WSW 17.3 mph 26.5 mph N/A   Overcast
4:15 PM 36.1 °F 26.5 °F 25.9 °F 66% 30.11 in 10.0 mi West 16.1 mph 25.3 mph N/A   Overcast
4:35 PM 36.1 °F 25.9 °F 25.7 °F 66% 30.13 in 10.0 mi WSW 18.4 mph 27.6 mph N/A   Overcast
4:55 PM 36.1 °F 26.9 °F 25.3 °F 65% 30.15 in 10.0 mi WSW 15.0 mph 27.6 mph N/A   Overcast
5:15 PM 36.1 °F 27.7 °F 25.3 °F 65% 30.16 in 10.0 mi West 12.7 mph 25.3 mph N/A   Overcast
5:35 PM 36.1 °F 26.2 °F 25.3 °F 65% 30.17 in 10.0 mi WSW 17.3 mph 27.6 mph N/A   Overcast
5:55 PM 36.1 °F 27.7 °F 25.3 °F 65% 30.19 in 10.0 mi West 12.7 mph 25.3 mph N/A   Overcast
6:15 PM 36.1 °F 26.9 °F 25.7 °F 66% 30.20 in 10.0 mi West 15.0 mph 26.5 mph N/A   Scattered Clouds
6:35 PM 36.1 °F 28.7 °F 25.7 °F 66% 30.23 in 10.0 mi West 10.4 mph 19.6 mph N/A   Scattered Clouds
6:55 PM 36.1 °F 27.7 °F 25.9 °F 66% 30.25 in 10.0 mi West 12.7 mph 20.7 mph N/A   Clear
7:15 PM 36.1 °F 26.9 °F 25.2 °F 64% 30.27 in 10.0 mi West 15.0 mph 24.2 mph N/A   Clear
7:35 PM 36.1 °F 26.5 °F 24.8 °F 63% 30.28 in 10.0 mi West 16.1 mph 25.3 mph N/A   Clear
7:55 PM 36.1 °F 26.5 °F 25.0 °F 64% 30.28 in 10.0 mi West 16.1 mph 24.2 mph N/A   Clear
8:15 PM 36.1 °F 25.9 °F 25.3 °F 65% 30.29 in 10.0 mi West 18.4 mph 27.6 mph N/A   Clear
8:35 PM 34.0 °F 24.6 °F 23.9 °F 67% 30.30 in 10.0 mi West 13.8 mph 21.9 mph N/A   Clear
8:55 PM 33.8 °F 25.8 °F 23.7 °F 67% 30.32 in 10.0 mi West 10.4 mph - N/A   Clear
9:15 PM 33.8 °F 25.3 °F 24.1 °F 68% 30.33 in 10.0 mi West 11.5 mph 17.3 mph N/A   Clear
9:35 PM 33.8 °F 25.3 °F 24.6 °F 69% 30.33 in 10.0 mi West 11.5 mph - N/A   Clear
9:55 PM 33.8 °F 23.9 °F 24.8 °F 70% 30.32 in 10.0 mi WNW 15.0 mph 19.6 mph N/A   Clear
10:15 PM 33.8 °F 24.8 °F 24.6 °F 69% 30.32 in 10.0 mi WNW 12.7 mph 19.6 mph N/A   Clear
10:35 PM 32.9 °F 24.7 °F 24.4 °F 71% 30.34 in 10.0 mi WNW 10.4 mph - N/A   Clear
10:55 PM 32.4 °F 26.0 °F 23.9 °F 71% 30.35 in 10.0 mi West 6.9 mph - N/A   Clear
11:15 PM 31.5 °F 24.9 °F 23.5 °F 73% 30.35 in 10.0 mi WNW 6.9 mph - N/A   Clear
11:35 PM 31.5 °F 25.8 °F 23.9 °F 74% 30.35 in 10.0 mi West 5.8 mph - N/A   Clear
11:55 PM 31.5 °F 26.8 °F 24.6 °F 76% 30.34 in 10.0 mi WNW 4.6 mph - N/A   Clear